Weather in Pokrovsk

Russia / Sakha (Yakutia) Republic     61°29′03″N   129°08′53″E
temp.,
°C
wind,
m/s
gust,
m/s
humid.,
%
clouds,
%
prec.,
mm/h
press.,
hPa
HPBL,
m
18 august, thu
thu1800:00+10sw26961 0.0 997122
03:00+9sw24965 0.0 99787
06:00+9ssw25915 0.0 998159
09:00+15sw346657 0.0 997712
12:00+15w4567100 0.0 997759
15:00+15w356476 0.0 9971050
18:00+16w236373 0.1 998535
21:00+12w228358 0.1 99825
19 august, fri
fri1900:00+9wsw22937 0.0 99822
03:00+8sw22946 0.0 99819
06:00+10w259223 0.0 999159
09:00+13wsw357795 0.0 999475
12:00+17w456050 0.4 9981315
15:00+17w566511 1.8 9981136
18:00+15w46725 0.4 999770
21:00+10wsw24935 0.4 100078
20 august, sat
sat2000:00+9wsw25955 0.0 100090
03:00+7sw25966 0.0 1001103
06:00+8sw2695100 0.0 1002189
09:00+14wsw357170 0.0 1002624
12:00+16sw346160 0.1 10021139
15:00+17w345716 0.4 10021146
18:00+15w356948 0.3 1003362
21:00+10wnw22925 0.3 100414
21 august, sun
sun2100:00+8w22957 0.0 100517
03:00+7w22965 0.0 100520
06:00+8wsw239374 0.0 1006100
09:00+11wnw3683100 0.0 1005406
12:00+14nw346685 0.0 10051117
15:00+14nnw456298 0.2 10051184
18:00+13nnw4771100 0.1 1005709
21:00+10nw3880100 0.1 1005517
22 august, mon
mon2200:00+9wnw3885100 0.0 1005429
03:00+9wnw3983100 0.0 1004476
06:00+8w41186100 0.0 1005496
09:00+12wnw586471 0.0 1005833
12:00+16wnw575194 0.0 10041668
15:00+13wnw6863100 0.0 1005885
18:00+13wnw4966100 0.0 1006783
21:00+12wnw4969100 0.0 1007467